Wind_Gust
19 19 19 19 19 19 19 19 20 20 20 20 21 21 21 21 21 20 21 21 22 23 23 24 24 25 26 26 26 26 23 21 23 24 21 36 21 19 27 23 21 19 17 8 6 5 7 5 4 2 5 7 11 9 10 8 9 9 21 19 15 12 17 13 19 19 11 15 16 20 10 5 11 14 9 6 15 13 12 12 9 17 16 17 22 29 30 29
19 19 19 19 18 18 19 18 18 20 20 19 20 21 20 20 21 21 21 21 21 23 23 23 23 24 25 25 26 26 21 18 24 23 33 37 22 27 27 24 23 17 12 8 6 6 4 4 5 4 9 10 4 11 10 16 14 19 16 20 30 18 21 15 16 12 11 13 17 11 13 13 20 12 13 5 4 8 15 11 10 17 20 23 27 30 29 29
20 20 20 19 19 19 18 18 18 18 19 19 19 21 20 20 20 21 21 22 22 22 22 23 23 24 24 25 25 24 19 23 21 23 27 14 23 27 27 26 24 17 10 7 6 7 8 4 4 5 8 9 8 12 9 19 19 17 13 25 22 11 13 14 8 12 12 12 18 10 10 6 10 10 9 7 6 7 15 17 10 19 22 24 27 29 28 25
20 20 20 21 20 20 20 20 19 20 19 19 19 20 20 20 20 20 20 21 22 21 22 22 22 23 24 24 25 20 14 18 19 15 5 15 19 24 24 24 22 16 9 11 8 7 2 4 4 3 7 12 10 10 16 18 26 14 19 23 17 13 16 17 16 18 19 13 14 6 10 17 17 10 8 5 12 5 6 8 17 23 26 26 27 28 28 25
20 20 20 20 21 21 21 21 21 21 21 21 22 21 21 22 22 21 20 20 21 21 22 22 22 22 23 23 23 14 16 12 15 3 6 25 25 27 28 19 19 11 12 6 5 5 5 4 3 4 8 16 8 6 16 11 16 10 23 11 8 7 16 16 16 16 18 19 9 5 5 13 10 9 14 9 9 14 15 9 13 30 31 33 32 28 30 29
19 20 19 20 21 21 21 21 21 21 21 21 22 23 23 23 23 23 22 20 20 21 22 21 22 21 22 23 18 8 6 18 7 13 14 25 26 26 29 20 20 11 7 6 7 3 4 4 7 8 12 9 12 22 12 18 11 24 15 10 13 10 15 11 17 18 18 23 11 9 8 8 5 4 6 8 5 8 9 11 21 25 28 28 28 30 28 29
20 19 19 19 20 20 20 21 21 22 21 21 22 22 24 24 24 23 23 21 21 21 21 21 20 22 21 17 16 7 11 36 21 15 21 22 25 24 27 18 13 7 7 9 8 12 6 5 11 8 8 9 9 21 10 10 12 16 25 6 11 11 19 11 10 14 17 17 15 12 3 9 7 9 5 6 8 11 8 19 21 21 22 25 30 26 25 26
20 20 19 19 19 20 20 20 21 20 21 21 22 22 23 24 24 23 22 22 21 21 20 20 19 20 19 15 16 7 10 28 34 18 20 23 21 21 20 11 7 5 7 14 13 14 7 12 14 9 13 15 9 13 11 10 13 23 25 13 11 7 12 15 20 19 17 15 7 4 11 19 13 8 4 5 5 11 19 21 23 23 23 23 26 25 25 26
21 21 20 19 20 20 21 21 21 20 21 21 22 21 23 23 23 22 22 21 21 21 21 19 18 17 17 10 13 14 27 32 25 18 27 17 19 20 17 14 9 7 10 13 13 13 10 11 11 13 10 11 16 10 8 14 25 21 18 12 11 14 8 13 17 21 23 17 8 9 11 17 13 14 9 2 5 11 17 19 23 23 24 22 21 23 25 25
20 21 20 20 20 20 20 20 21 21 21 22 22 22 21 21 21 21 21 21 22 21 20 19 17 16 13 11 12 15 19 9 12 10 11 14 20 22 17 11 9 9 8 9 8 12 17 12 13 8 8 12 7 12 4 16 15 7 13 16 17 15 13 10 17 19 20 17 9 14 10 15 16 13 11 3 12 16 18 18 15 23 22 18 17 16 16 22
20 21 20 21 21 21 21 22 22 22 21 22 22 21 21 21 21 21 20 21 20 21 20 19 16 12 12 10 14 29 12 14 6 18 16 20 22 18 19 17 12 12 11 11 14 14 12 11 8 4 10 21 5 8 13 11 5 14 9 13 18 16 17 16 13 15 9 18 11 11 13 12 17 8 17 15 13 16 23 20 17 17 18 17 15 16 13 15
21 21 21 21 21 21 21 22 22 22 22 22 22 22 22 22 21 22 21 21 21 20 20 18 16 9 10 16 24 40 16 21 27 24 26 24 28 21 20 17 15 13 11 10 11 12 15 16 9 10 18 7 18 5 18 11 9 10 15 16 12 18 32 20 24 18 10 17 9 13 9 10 10 11 15 18 18 16 20 19 18 16 15 13 13 14 15 16
21 21 22 21 22 21 21 22 23 23 22 22 22 23 23 23 23 23 22 21 19 20 19 18 14 5 11 28 35 35 33 34 35 30 29 24 23 19 20 18 16 15 13 11 12 10 11 15 12 12 18 7 7 24 10 11 11 9 12 19 14 14 22 24 17 16 11 15 10 13 20 12 10 11 16 17 21 18 18 18 20 14 13 12 12 13 15 17
22 22 22 22 22 22 22 23 23 24 24 24 23 23 23 23 24 25 24 23 22 21 19 18 9 7 14 31 22 23 18 21 21 23 29 27 17 25 18 17 15 15 10 12 16 13 10 7 12 15 12 11 14 8 14 11 5 12 8 10 19 14 26 13 21 13 16 14 12 17 19 16 10 10 12 13 18 25 21 17 19 15 13 14 14 16 17 14
22 23 23 23 23 23 23 23 24 24 24 25 24 24 25 25 24 25 25 23 20 18 18 14 5 8 16 33 13 29 31 29 26 30 32 23 15 20 20 16 14 11 12 11 13 8 8 9 8 18 20 9 11 13 18 8 6 8 15 25 11 21 7 9 15 16 26 15 12 16 17 16 12 13 12 13 15 18 21 17 15 15 13 14 15 17 17 17
23 23 24 24 23 24 24 25 25 24 25 25 26 25 25 27 26 25 25 21 21 17 9 6 7 11 15 35 24 12 12 13 20 27 27 14 16 20 15 14 14 16 13 12 12 13 11 6 11 13 11 6 13 13 6 9 13 12 19 8 19 9 10 9 12 16 21 20 6 20 15 9 4 6 8 11 17 19 22 17 15 16 17 16 16 16 15 17
24 24 24 24 23 23 23 24 24 25 25 25 27 25 25 26 27 26 24 23 15 8 7 10 5 8 14 16 15 16 16 14 13 10 11 16 19 20 16 16 16 11 9 11 12 8 9 11 8 12 14 19 10 12 11 15 14 19 10 17 9 13 9 21 7 11 16 18 12 13 16 10 10 18 14 13 16 17 22 19 17 17 17 17 16 15 15 17
24 25 25 24 23 23 23 23 23 24 24 24 22 22 31 29 30 23 15 7 5 6 9 10 10 11 34 25 24 19 7 13 11 19 22 20 21 18 17 18 10 11 10 13 8 14 11 15 11 12 10 17 16 21 31 40 37 21 11 13 9 7 15 15 20 10 14 15 17 9 9 8 12 15 16 19 17 18 23 22 20 18 18 18 17 17 16 19
24 25 25 24 24 23 23 23 23 23 22 20 20 23 27 26 14 5 4 4 8 7 10 14 15 17 23 7 18 14 16 18 27 20 16 12 12 17 16 13 6 5 9 11 12 13 12 9 7 8 27 30 33 30 27 3 13 9 10 12 8 13 13 21 17 8 18 12 19 14 18 15 16 15 15 13 16 17 17 16 17 17 17 17 17 17 18 19
25 25 25 25 24 23 23 22 22 22 20 14 15 21 18 17 14 10 5 4 8 10 11 9 22 21 24 35 23 13 23 20 17 12 12 10 14 13 14 15 9 8 11 17 8 15 13 18 24 34 35 27 13 11 8 13 8 12 8 9 11 9 7 9 10 12 11 14 17 13 12 21 21 22 20 18 18 16 18 19 18 17 19 20 19 19 19 19
25 25 24 24 24 23 22 21 20 18 18 6 8 15 13 11 13 18 15 18 16 16 19 23 21 24 35 24 21 19 28 26 19 24 22 15 15 19 17 14 13 13 17 11 12 8 14 18 28 19 7 9 13 10 8 14 11 11 6 5 11 11 12 10 14 11 10 15 8 9 17 18 22 18 19 16 18 22 23 20 20 22 21 19 21 20 20 17
26 26 25 24 23 23 23 20 19 17 13 4 7 14 13 12 6 9 12 26 12 17 19 25 20 28 29 27 28 17 18 27 32 30 26 13 18 22 11 20 18 21 8 11 11 13 24 36 22 6 5 7 9 13 12 17 17 12 8 7 5 11 9 10 8 8 8 10 10 13 18 17 16 16 14 20 21 21 23 26 27 29 25 22 22 22 21 19
27 26 25 24 23 24 22 20 17 17 10 6 9 10 13 11 4 7 9 23 32 18 23 23 22 28 34 28 25 8 15 19 25 29 20 6 18 19 17 20 15 13 13 15 22 19 26 23 7 13 8 9 8 13 14 15 15 15 10 8 15 7 15 17 13 6 4 19 11 13 16 9 8 9 10 7 11 13 15 13 17 17 27 27 27 26 25 24
26 27 27 25 23 22 23 21 16 8 4 9 8 11 7 6 4 4 5 14 24 21 20 22 23 25 29 24 15 22 18 18 14 25 18 12 17 13 16 19 14 16 21 19 20 21 13 6 12 14 12 9 10 13 17 17 21 17 12 8 10 7 8 11 12 14 5 8 12 17 14 7 11 19 14 8 10 16 14 17 15 14 16 18 17 18 23 28
27 26 26 25 23 24 22 20 9 5 5 3 9 11 13 10 6 7 8 16 15 22 10 18 18 22 22 10 13 14 12 18 21 24 16 11 6 13 11 16 17 20 19 15 12 14 13 11 20 16 16 16 14 15 22 20 15 18 13 12 9 5 6 8 7 11 11 10 7 23 15 18 10 17 14 16 16 15 17 21 22 22 18 22 21 20 18 19
27 26 26 24 23 22 21 14 7 7 12 14 9 3 4 3 7 6 4 11 18 13 5 9 11 16 15 17 14 14 7 23 16 23 15 12 11 12 12 17 23 23 17 12 17 21 15 9 18 20 17 18 17 17 14 15 20 15 19 15 11 8 7 9 5 6 10 19 15 15 26 16 8 15 17 14 18 17 18 20 24 23 23 22 21 21 21 21
27 27 25 23 21 20 15 10 6 9 10 9 2 1 2 3 3 5 11 12 11 9 7 6 9 16 13 7 17 12 9 18 14 15 16 14 11 7 6 13 15 11 14 14 18 27 18 17 16 19 19 20 20 24 20 22 19 28 8 17 13 11 13 13 3 5 10 6 10 20 21 24 19 21 20 21 19 20 21 23 21 21 22 21 20 20 19 21
27 26 23 22 22 16 13 18 16 12 12 7 2 2 2 3 5 6 9 15 18 6 8 7 14 8 6 7 17 23 10 6 9 9 15 12 10 12 7 6 11 10 13 18 24 9 18 21 20 21 20 23 28 21 8 14 29 17 7 14 13 14 13 9 6 8 11 5 13 18 8 20 19 21 16 13 20 21 26 28 27 23 23 21 20 21 19 19
27 26 26 24 22 22 16 11 9 15 9 4 2 3 4 5 7 7 8 10 11 17 14 9 13 5 8 4 18 15 12 8 6 10 7 8 12 6 11 7 6 5 6 12 14 8 20 15 17 18 23 30 17 9 11 17 24 11 11 8 8 6 7 10 11 11 14 8 16 19 19 25 10 10 19 15 15 22 28 31 29 24 23 23 23 21 20 18
28 27 28 26 20 11 7 5 15 18 8 6 6 3 3 5 4 7 11 12 12 12 9 12 10 10 8 5 13 11 14 18 8 8 7 12 6 7 11 3 4 7 9 5 7 12 8 16 13 26 29 22 11 10 15 11 7 6 10 8 7 6 3 4 9 12 6 15 26 19 17 18 19 19 29 29 37 38 30 24 20 20 21 23 22 22 22 20
33 32 29 25 18 12 8 13 17 17 13 8 3 3 3 7 4 7 7 15 10 10 12 6 8 9 11 10 10 10 15 16 9 6 11 5 4 9 4 9 8 7 5 5 9 14 19 11 21 22 16 18 11 16 12 11 9 11 21 14 6 11 5 8 10 5 18 29 18 19 26 15 24 15 19 27 30 35 36 32 31 30 27 29 25 24 21 20
33 34 32 25 20 13 16 12 8 3 7 7 6 5 4 7 4 8 16 4 15 9 4 11 5 7 11 7 5 6 13 8 14 11 11 7 4 13 14 12 20 15 11 8 20 12 13 19 15 12 16 21 23 16 13 13 12 19 13 13 18 14 17 19 12 18 28 34 15 14 16 16 30 26 36 38 28 28 32 37 40 35 29 27 23 23 21 20
34 35 34 22 12 12 21 19 4 6 7 9 6 3 3 6 15 9 13 6 12 3 7 7 12 12 9 11 8 6 5 13 5 13 10 13 7 9 11 19 7 16 20 13 13 13 15 9 12 14 12 22 19 26 20 22 24 20 23 20 23 21 21 19 18 18 15 15 9 13 20 27 9 10 30 39 35 36 37 32 30 31 31 28 25 22 21 21
34 33 21 10 9 15 13 13 15 5 6 5 7 3 3 7 16 8 8 9 7 4 5 8 13 13 6 8 7 7 6 8 6 13 10 8 6 10 15 12 10 9 5 6 20 16 14 19 19 17 23 20 28 27 23 15 21 26 11 20 17 19 29 26 23 30 20 16 13 7 28 24 13 14 28 38 39 34 32 20 15 16 22 23 22 21 20 21
34 22 12 11 8 13 14 12 11 13 8 5 3 6 9 15 8 9 9 6 7 5 5 6 9 11 15 12 11 13 9 9 12 11 12 12 10 12 16 18 17 9 7 17 16 15 11 17 14 19 7 23 25 20 16 13 11 16 13 14 13 29 14 14 17 13 11 11 8 13 21 11 15 10 19 33 26 17 18 17 17 19 20 20 23 24 23 22
21 14 7 9 5 6 15 14 11 13 11 8 6 11 17 12 10 5 9 7 5 5 9 15 17 15 15 16 9 8 12 12 5 10 8 13 14 17 15 15 22 19 14 19 14 17 12 19 7 16 13 22 21 19 22 18 33 20 20 28 24 10 13 8 5 3 4 9 19 11 7 6 12 20 14 18 19 16 20 18 19 21 23 21 22 24 22 22
19 17 10 5 6 5 14 14 15 14 12 12 8 13 14 17 14 11 9 5 5 4 9 14 10 12 9 12 9 11 16 13 8 8 10 7 15 18 21 13 7 16 19 13 9 9 17 15 11 16 22 18 24 19 16 19 15 20 29 23 8 6 11 15 17 8 10 16 19 7 14 7 8 17 7 19 20 19 22 23 20 23 21 24 22 24 24 23
21 15 13 9 7 10 13 15 15 11 12 10 18 15 7 14 11 15 8 9 8 6 11 12 11 9 6 5 8 11 16 14 9 10 10 12 20 12 18 20 12 19 18 15 7 9 4 12 13 12 18 16 14 20 15 12 11 20 25 13 28 20 24 13 12 9 15 18 13 6 6 11 15 17 17 18 24 21 22 20 21 24 25 24 22 21 21 21
9 9 12 5 8 9 16 16 12 15 8 13 13 17 12 20 7 10 9 9 8 8 13 12 10 8 5 5 6 15 20 20 13 12 12 16 18 15 26 17 15 21 17 15 19 13 7 7 11 8 20 15 11 19 25 25 15 4 9 24 16 12 13 13 23 11 18 11 8 8 3 16 15 30 30 31 30 30 26 23 25 28 29 26 25 25 25 25
12 11 7 5 7 11 16 14 11 12 8 15 7 20 6 16 16 10 11 12 14 11 10 7 9 7 8 9 9 6 14 13 11 10 12 9 21 8 24 19 19 21 19 16 18 4 13 4 9 12 7 14 20 25 25 26 28 18 14 16 23 24 7 14 8 13 14 16 13 13 10 15 16 21 34 34 35 32 34 34 29 30 29 26 26 28 28 27
10 8 11 4 8 10 14 13 7 11 12 11 9 19 12 17 11 9 11 13 14 12 15 9 6 6 7 13 7 9 10 15 14 12 14 8 17 12 18 23 22 9 19 16 15 10 14 8 10 7 16 18 14 18 17 22 15 16 18 15 13 20 12 16 19 9 12 16 16 18 15 16 19 15 27 34 33 35 34 33 32 31 29 28 26 26 28 27
12 15 10 3 5 5 12 7 14 7 12 13 15 12 16 10 16 15 11 12 17 18 13 11 10 11 9 10 10 7 7 9 13 10 10 14 11 15 10 20 15 7 18 27 23 16 17 6 5 9 17 23 12 7 9 13 13 13 18 14 13 13 15 16 17 13 7 10 12 13 15 13 12 16 26 35 31 32 31 30 31 30 29 28 26 25 24 26
14 14 7 4 5 10 8 9 8 10 11 11 6 15 17 19 13 12 11 8 9 11 11 14 11 7 9 11 7 10 8 10 11 15 8 8 16 25 13 13 11 15 10 17 16 20 10 18 12 11 9 5 2 5 11 16 14 6 8 6 11 17 15 17 18 15 18 6 7 6 13 14 9 8 14 13 23 24 26 28 29 26 25 24 24 23 23 21
13 16 12 2 3 8 6 12 9 8 14 11 11 20 9 16 14 14 14 10 12 8 8 10 7 14 8 10 7 10 5 8 7 11 14 10 17 17 17 14 20 24 17 13 21 13 22 13 11 9 14 14 4 11 10 8 17 18 14 11 10 10 9 6 9 4 13 11 15 16 15 10 8 6 12 11 13 18 20 14 22 28 23 24 24 22 23 21
17 11 11 7 4 6 8 8 8 13 11 11 15 16 13 7 11 16 10 7 7 10 8 8 9 7 11 7 12 11 12 14 12 12 13 7 14 9 15 19 24 20 21 10 12 11 14 7 13 11 19 22 26 24 21 16 21 16 9 12 9 10 10 10 15 7 11 5 7 15 12 15 11 7 17 13 15 12 9 15 13 19 28 27 23 22 24 24
12 23 16 7 8 9 9 5 8 10 13 11 11 9 4 11 9 7 10 14 11 10 10 9 7 5 8 5 7 9 12 15 18 10 10 9 10 9 15 19 22 30 20 18 20 12 9 5 7 12 17 19 18 16 11 10 15 25 11 14 10 4 7 9 12 10 15 9 8 11 15 11 9 7 16 17 19 23 22 18 24 23 19 20 22 25 27 26
10 14 19 23 13 9 9 7 6 5 11 4 11 10 8 8 14 11 10 7 8 13 5 9 7 6 8 11 11 8 8 10 13 13 13 8 9 12 14 21 24 22 24 21 14 8 8 11 9 8 8 16 13 8 9 9 12 7 10 8 6 9 11 10 12 17 10 16 9 8 10 20 15 15 21 24 23 23 24 26 23 22 24 26 23 21 19 22
17 7 6 7 16 19 23 15 8 14 11 7 8 6 9 10 12 11 6 9 4 10 8 6 7 14 14 14 5 7 8 10 8 8 6 6 9 12 14 14 20 21 18 20 9 9 10 11 9 4 6 6 10 8 8 9 11 14 13 12 8 8 8 10 9 8 10 13 18 10 12 20 18 21 26 29 31 32 30 32 30 29 27 22 22 24 25 25
7 12 13 10 18 12 14 23 24 18 14 5 8 5 8 8 13 9 6 8 3 3 8 7 10 12 12 9 5 5 5 10 11 8 7 12 16 10 11 11 13 11 13 12 12 7 7 12 8 3 7 5 4 9 9 12 7 9 12 11 12 13 13 11 7 7 12 8 12 16 16 18 25 24 24 26 28 28 22 17 18 22 26 25 26 27 28 28
16 16 14 13 13 20 16 13 17 18 11 9 9 7 9 8 11 13 5 5 5 6 11 4 10 9 7 9 6 4 4 4 5 9 7 7 22 5 9 10 16 9 15 13 12 5 10 16 5 7 5 4 5 7 13 12 11 11 6 8 9 9 7 3 5 4 7 9 7 14 15 13 10 6 7 8 14 17 19 23 27 26 25 26 26 26 26 27
12 9 15 23 26 14 16 14 19 20 12 10 12 15 11 7 9 8 11 6 7 3 10 5 6 12 6 11 7 8 10 10 11 16 18 7 10 12 9 14 17 12 12 9 9 9 7 13 6 7 6 6 5 7 7 11 9 9 8 8 9 9 6 5 10 10 8 8 11 10 15 12 7 11 12 15 17 23 27 24 24 23 24 25 26 25 25 25
13 12 12 16 15 12 18 18 15 14 17 16 12 20 17 12 12 8 12 8 8 10 6 3 7 11 11 12 14 12 17 17 19 21 19 14 15 22 18 12 16 19 16 11 5 7 6 6 7 5 8 4 10 5 11 11 10 7 8 8 9 3 2 3 5 4 9 17 16 15 19 19 23 22 23 17 19 17 19 24 25 23 25 27 28 28 28 28
Wind_Speed
14 14 14 14 14 14 14 15 15 15 14 15 15 15 15 16 17 16 16 16 17 18 18 17 17 19 20 20 20 21 19 10 13 11 13 19 13 15 19 18 15 9 6 3 3 1 3 1 2 0 2 3 3 2 3 2 1 3 5 5 7 4 9 5 8 8 4 6 3 5 6 2 6 6 2 2 7 5 5 6 2 9 8 10 12 19 19 18
14 14 14 14 14 14 14 14 14 15 15 15 15 15 15 14 16 17 17 17 17 17 17 18 18 18 19 19 21 21 15 10 14 13 17 21 18 17 21 19 18 13 7 4 3 4 2 1 2 2 4 2 1 2 4 3 4 6 3 6 14 8 5 9 7 8 4 4 6 7 0 2 6 1 3 1 0 2 6 5 6 11 13 15 16 18 17 17
14 14 14 14 14 14 14 14 14 14 14 15 15 16 16 16 16 16 17 17 17 18 16 17 18 18 19 20 20 19 12 12 10 14 11 5 7 10 19 19 19 14 6 4 3 4 3 1 1 2 2 2 2 5 4 4 6 6 4 10 9 5 4 9 4 7 6 5 7 7 3 2 7 2 3 2 3 1 9 8 7 12 15 14 15 16 15 14
14 13 13 14 14 14 13 14 13 14 14 15 15 16 16 16 16 15 15 16 17 17 16 16 17 18 18 19 20 13 7 7 8 6 1 10 13 19 13 17 17 11 5 5 5 4 1 1 1 1 1 4 2 2 5 6 7 2 4 6 5 6 8 8 6 7 9 6 4 2 2 5 6 2 3 0 1 2 4 5 11 15 18 18 18 19 17 16
15 15 14 14 14 14 15 15 15 15 15 14 15 15 15 16 18 17 15 15 16 17 16 16 17 16 17 19 18 8 9 5 5 1 1 15 18 18 21 7 11 7 8 1 3 4 3 0 0 0 2 3 2 1 4 4 3 1 12 4 4 4 5 5 10 10 7 5 4 2 3 4 3 3 2 2 3 6 2 1 9 20 21 21 20 18 16 17
15 15 15 14 14 15 15 15 16 16 16 16 15 15 16 16 17 17 18 14 15 15 17 16 16 16 16 17 11 5 1 2 1 6 4 16 18 19 19 15 7 4 5 3 3 1 2 0 2 1 2 2 6 10 1 6 3 8 3 6 5 5 7 4 5 7 8 6 6 4 4 4 1 0 1 2 2 3 6 6 14 17 19 19 18 18 16 14
15 15 15 14 14 15 15 16 16 16 16 17 17 16 16 16 16 17 17 16 13 14 15 16 15 15 14 11 9 3 4 10 8 8 15 17 19 17 20 14 4 3 4 4 4 3 3 2 4 3 2 2 5 7 4 4 4 5 5 1 7 5 8 4 5 8 7 9 8 5 1 3 1 5 0 2 4 1 5 12 14 14 15 17 17 16 17 15
15 15 15 15 14 14 15 15 15 16 16 16 16 17 17 17 17 17 17 17 15 14 14 15 14 13 11 6 8 2 2 12 13 9 16 17 14 15 14 7 5 1 2 5 5 5 3 5 6 2 3 7 3 5 3 5 4 10 9 4 2 4 7 7 5 5 6 7 4 3 6 7 5 3 1 2 2 7 9 11 12 13 14 13 15 16 15 16
15 15 14 14 15 15 14 15 15 15 15 15 15 15 16 16 17 16 16 16 16 15 14 14 14 12 7 2 5 7 11 9 6 11 8 8 11 12 10 6 7 0 2 4 5 6 5 4 4 5 3 3 5 0 2 5 10 6 7 2 3 5 4 6 6 11 9 3 5 4 7 8 5 6 2 1 3 6 11 11 13 13 13 13 13 15 17 17
15 15 15 15 15 15 15 14 15 15 15 16 15 15 14 15 15 16 16 17 16 16 14 13 13 10 3 1 5 7 8 4 4 6 7 9 13 14 8 5 6 5 4 4 3 6 8 3 8 5 1 3 3 5 1 8 5 3 7 7 6 8 5 4 6 6 6 5 6 7 6 7 3 7 4 0 7 10 12 12 10 14 13 11 11 10 11 15
16 15 15 15 15 15 16 15 15 15 16 16 16 15 16 16 16 16 16 16 16 16 14 14 12 7 1 1 4 13 4 9 3 11 11 15 16 11 12 10 7 5 4 7 6 8 7 6 5 1 1 5 1 4 5 3 1 6 3 5 11 10 8 5 5 8 1 5 8 7 8 7 0 1 5 9 8 11 15 14 11 10 10 11 11 11 9 10
16 16 16 16 16 16 16 16 16 17 16 17 17 18 17 17 17 17 16 16 16 15 15 13 13 3 4 7 12 16 10 12 17 14 15 17 15 11 9 8 6 6 5 6 7 4 6 7 5 3 5 3 6 1 5 4 1 2 3 4 4 6 11 12 11 6 3 6 5 9 5 5 1 5 1 11 11 11 13 12 11 10 8 8 8 8 9 10
17 17 17 16 17 16 16 16 17 17 17 17 17 18 18 18 18 19 17 17 15 16 15 14 10 2 2 12 15 12 16 16 20 20 16 12 13 11 9 8 8 9 8 7 7 6 4 6 5 5 6 1 2 5 1 2 2 1 1 1 2 4 8 14 6 5 5 4 5 6 6 6 4 4 5 12 12 12 12 11 12 9 7 7 8 8 8 7
18 17 18 17 17 17 17 17 17 18 18 18 18 18 18 18 19 19 18 17 17 16 13 12 5 1 3 12 4 5 10 11 13 16 19 14 9 14 7 7 7 7 5 7 11 8 6 4 7 7 3 4 3 5 6 2 1 4 3 4 6 4 9 4 7 7 9 5 6 6 8 6 6 2 8 9 12 15 15 12 13 9 8 8 9 9 9 8
17 18 18 18 18 18 18 18 18 19 19 19 19 18 18 19 19 18 18 16 15 14 13 9 1 1 6 11 6 13 20 13 13 18 18 12 8 12 9 3 6 7 7 8 5 4 5 5 4 5 5 3 5 5 6 1 2 2 5 10 3 10 1 3 6 10 13 3 8 7 8 8 5 2 7 9 10 11 14 12 10 9 7 8 10 11 10 7
18 18 18 17 18 18 18 19 19 19 20 20 21 20 20 19 18 18 18 14 15 13 4 1 1 3 7 13 6 5 4 5 9 15 15 7 8 11 10 6 4 8 6 5 6 6 5 3 4 4 2 1 6 5 2 3 3 2 9 4 9 4 4 2 6 8 13 6 2 12 4 1 1 4 5 8 11 9 11 12 10 11 11 8 9 7 7 6
19 18 19 18 18 17 18 18 19 20 20 20 22 20 19 20 20 19 18 17 8 3 3 1 0 2 5 4 5 8 4 4 7 2 2 8 10 11 6 3 3 3 3 6 6 4 2 4 2 2 4 4 4 5 4 7 5 7 2 5 3 7 4 7 2 4 10 11 5 7 6 5 3 10 8 9 10 10 11 12 11 11 10 10 9 8 8 7
19 20 20 19 19 18 18 18 18 20 19 19 18 18 18 23 24 18 9 3 2 3 2 0 1 4 12 8 10 8 3 7 5 9 14 11 14 10 7 3 3 4 3 5 2 3 2 3 3 5 4 7 6 10 12 19 16 8 4 6 2 1 10 9 6 4 8 9 10 6 6 5 3 8 10 13 11 11 13 12 13 12 12 11 9 8 9 9
20 20 20 20 19 19 18 18 19 18 17 16 16 18 19 15 4 1 0 1 3 2 2 3 6 6 9 1 7 7 5 7 13 10 9 1 3 7 5 2 1 2 2 4 3 8 2 1 3 3 11 13 16 16 13 1 6 5 6 6 4 5 6 10 8 4 12 6 9 9 9 4 7 9 9 8 10 10 9 8 8 9 10 11 9 8 9 8
19 19 19 18 18 18 18 18 17 17 16 9 7 8 5 7 5 1 2 2 2 5 5 6 12 11 13 20 12 7 10 12 8 4 5 2 4 6 5 3 2 1 4 7 3 8 4 8 11 16 16 15 8 6 5 6 2 8 4 6 7 5 3 4 4 7 7 6 9 8 6 10 12 14 13 11 10 9 9 11 9 10 11 10 8 9 9 9
20 20 19 18 17 17 17 16 14 13 14 3 4 5 3 4 5 4 6 9 10 10 12 13 13 15 17 9 7 7 10 11 5 12 12 5 4 8 4 6 3 6 8 3 5 2 7 9 14 12 4 6 9 6 5 9 1 0 2 4 6 6 6 4 5 4 6 7 4 6 9 9 13 11 11 10 11 15 15 11 10 12 10 9 10 10 10 9
20 20 20 19 17 17 17 16 14 12 10 1 1 2 4 5 4 2 3 8 7 12 13 17 13 16 15 14 14 5 5 8 20 17 8 9 4 9 3 8 8 10 3 2 2 2 11 16 12 4 4 5 6 8 7 11 9 2 2 2 1 4 3 6 4 4 3 4 2 6 9 8 10 9 9 12 14 11 14 12 16 15 13 10 10 10 11 11
21 21 20 19 18 17 18 16 13 13 1 1 1 1 5 5 2 2 3 8 15 10 13 13 13 17 18 9 6 5 8 10 11 12 4 0 5 10 8 8 9 6 5 8 11 7 10 11 5 8 4 6 4 8 10 9 9 6 3 3 5 3 6 5 5 0 2 4 6 5 8 3 5 5 6 4 5 4 10 7 7 9 14 15 15 13 13 13
20 20 21 20 18 17 17 17 13 3 1 1 2 5 4 2 1 2 1 4 10 11 7 11 12 11 11 9 4 13 11 6 5 13 6 5 7 6 6 9 7 7 10 11 13 9 4 1 8 9 7 6 6 8 11 9 11 6 5 3 3 2 1 3 4 1 2 4 7 10 7 2 6 8 5 5 5 6 8 6 6 7 5 4 5 7 10 14
22 21 19 20 18 18 17 15 4 1 3 2 3 5 5 5 4 3 3 4 5 8 2 3 5 5 9 3 3 6 6 4 11 7 3 2 2 5 4 3 5 10 12 10 5 6 8 7 7 11 10 7 6 9 13 11 7 6 4 6 4 2 4 4 3 2 2 1 2 12 4 4 4 11 6 6 6 7 8 8 10 10 8 9 11 10 10 10
21 21 20 18 17 17 15 6 3 2 8 6 4 1 1 1 2 3 1 2 7 4 1 3 3 3 3 2 6 4 1 6 9 11 7 4 5 3 1 5 5 12 11 7 8 4 5 5 4 12 11 11 6 6 7 9 7 5 6 9 5 4 2 1 4 1 3 5 4 1 9 3 1 6 4 4 8 8 8 10 10 10 9 10 11 11 12 12
22 22 19 17 15 15 6 2 2 4 5 4 1 0 0 0 1 2 2 2 3 1 2 1 1 0 2 3 7 5 2 6 2 5 7 6 2 3 2 5 5 2 4 3 3 8 6 10 5 6 12 12 10 9 7 13 8 6 3 11 8 4 4 2 1 2 2 2 4 2 4 6 4 7 4 7 11 12 11 12 13 12 12 12 11 12 11 12
21 20 19 17 16 10 5 6 8 6 6 3 1 0 1 0 2 1 1 3 2 1 2 1 2 1 2 3 10 6 5 3 2 3 9 6 6 1 1 2 3 6 6 7 12 1 11 11 8 8 9 11 13 8 3 8 7 3 4 10 8 9 5 3 2 3 0 2 5 3 4 3 4 3 6 5 8 13 12 13 15 15 14 13 12 12 11 12
22 21 21 20 17 16 8 4 4 8 4 3 0 2 2 2 2 2 2 1 0 2 3 1 5 0 3 2 6 5 5 1 2 6 2 4 6 2 1 4 1 3 1 8 7 1 5 9 8 7 7 11 5 5 7 10 7 3 7 5 5 4 4 6 4 2 1 1 7 6 6 4 1 2 8 3 3 10 13 17 17 13 14 14 14 14 12 11
22 22 23 21 14 6 2 2 7 11 4 3 2 2 2 1 1 0 3 4 2 2 2 3 2 4 4 2 3 4 6 1 2 1 4 2 3 2 2 1 0 1 1 1 3 7 2 4 8 6 9 4 5 5 5 7 4 3 4 4 1 3 1 1 2 2 3 4 12 7 8 8 3 6 11 10 9 15 16 10 7 10 13 15 14 15 12 12
26 26 23 21 8 4 3 5 9 9 8 4 0 1 1 1 0 3 1 4 1 3 2 2 3 4 6 6 5 3 6 3 4 0 3 2 2 3 1 0 1 1 2 1 1 4 6 3 5 5 6 4 6 3 4 7 5 5 3 3 3 2 2 3 1 2 2 9 7 5 9 9 8 3 8 10 18 23 18 19 19 20 18 18 16 14 12 12
27 27 25 15 9 5 7 5 4 2 4 4 3 1 1 0 1 3 5 1 1 2 1 4 1 2 7 4 2 2 2 1 2 1 2 1 2 4 2 4 4 3 4 3 5 3 6 6 1 5 7 10 7 8 5 5 6 7 5 7 7 2 3 2 1 2 11 10 1 7 9 1 10 5 15 18 18 13 18 19 21 21 19 17 15 14 11 12
27 28 26 13 8 5 11 10 2 3 4 6 3 1 0 1 4 4 3 2 2 1 0 3 6 6 5 6 4 3 4 4 0 1 1 2 1 2 3 6 2 4 5 4 6 5 6 2 3 3 2 8 9 11 7 7 8 8 9 8 9 5 5 6 6 2 5 5 3 3 7 5 2 3 18 24 23 23 22 17 12 18 20 18 16 13 10 11
27 26 10 5 4 7 5 7 8 1 2 3 2 1 1 2 5 3 2 3 3 1 2 1 4 7 3 2 3 3 2 2 1 1 5 2 3 1 2 5 2 2 2 2 4 6 5 6 6 7 5 8 12 11 12 6 11 9 3 9 7 5 5 7 5 9 6 7 1 0 6 4 5 5 17 24 26 18 9 3 6 7 7 10 10 10 10 10
28 16 6 5 3 6 9 7 6 6 1 2 1 2 3 5 2 2 2 2 1 1 1 1 2 3 8 4 3 4 4 3 3 2 4 3 2 2 2 3 4 3 1 7 4 2 6 3 7 10 3 9 11 8 5 8 5 3 4 6 6 12 6 3 5 4 3 2 1 1 4 5 6 1 6 16 15 5 7 7 10 11 10 11 11 12 12 11
16 7 3 2 2 2 7 6 6 7 5 3 2 4 7 3 3 1 2 1 1 1 2 6 8 6 6 6 2 4 3 3 2 3 2 5 3 3 2 1 4 8 3 4 3 3 3 4 3 5 8 6 11 8 6 9 9 6 8 10 10 4 2 2 1 0 2 3 6 2 1 1 5 5 5 9 10 8 9 8 11 12 13 13 11 11 12 11
9 8 4 2 2 2 6 7 6 6 5 4 2 5 4 3 5 2 3 2 1 1 2 4 1 4 3 3 3 5 3 2 4 1 1 2 2 4 2 2 4 7 8 3 2 2 6 5 4 6 14 8 5 11 5 5 6 5 8 7 3 3 4 3 4 1 1 4 5 2 6 1 2 4 1 9 13 10 12 12 12 13 12 13 11 12 13 12
9 6 5 5 2 1 7 8 7 4 4 4 8 10 1 4 4 7 0 2 3 3 4 3 1 3 1 2 3 5 5 5 4 1 2 2 3 3 6 2 5 6 8 3 1 2 1 2 3 6 10 9 2 9 5 5 4 10 10 4 9 5 7 3 2 1 1 2 2 1 1 2 7 5 3 9 14 13 12 11 12 14 15 13 13 12 12 12
4 3 3 2 5 1 8 9 6 6 3 3 4 6 3 7 2 3 5 4 3 4 4 5 3 2 1 2 3 3 8 5 3 2 2 2 1 2 6 4 3 6 5 8 3 2 2 1 2 0 9 6 4 7 10 10 6 2 6 8 5 3 2 2 6 4 5 3 1 3 1 4 5 8 16 17 18 17 16 14 16 17 18 15 14 13 14 14
4 3 2 2 4 7 8 8 5 5 1 6 3 6 2 6 7 6 6 6 4 4 4 3 5 2 3 3 2 1 5 2 4 2 1 1 4 3 3 7 2 5 6 9 4 0 3 0 1 2 3 7 5 6 11 13 13 6 5 6 6 3 2 4 1 3 3 3 3 3 1 4 7 7 16 20 19 19 20 20 17 16 17 16 15 15 13 13
4 1 3 2 5 6 8 5 2 3 3 3 4 5 6 4 4 3 5 9 6 6 6 4 1 2 3 5 3 2 1 0 0 1 2 1 4 2 4 5 5 1 4 4 4 3 1 1 2 2 4 8 7 8 10 11 8 7 6 6 7 10 4 7 8 2 2 1 3 3 4 6 9 5 14 16 20 21 22 20 18 18 19 16 15 15 14 12
4 4 3 2 3 2 6 2 2 1 2 6 4 3 4 4 6 9 5 7 11 5 5 4 6 6 3 4 3 2 0 1 0 0 1 4 3 5 4 7 7 4 6 5 8 4 2 1 1 3 4 9 7 5 6 8 8 7 9 6 6 5 6 5 5 5 1 2 4 3 5 6 4 4 10 10 13 18 17 18 17 17 18 16 15 15 13 12
3 5 2 3 3 6 4 2 3 3 4 4 4 8 9 8 6 4 5 3 3 4 4 5 4 3 5 3 4 3 0 0 3 3 1 1 5 9 5 8 7 7 3 1 2 1 5 3 4 6 4 3 1 1 7 10 8 2 3 2 5 6 7 7 7 7 7 2 0 0 1 3 3 3 1 2 3 2 5 14 17 15 14 13 14 14 14 12
5 5 3 1 1 4 2 3 3 3 5 6 6 11 5 6 5 7 5 4 3 1 3 3 4 5 2 6 3 1 0 1 3 4 4 5 5 9 10 9 11 7 7 5 7 5 4 3 2 3 2 3 2 5 4 3 6 4 4 3 6 5 6 3 4 1 4 6 8 6 4 3 1 4 4 5 6 8 8 5 9 14 13 13 14 13 13 12
5 3 4 1 2 3 2 1 3 5 5 6 6 9 6 3 6 9 4 3 3 5 3 3 3 3 3 3 1 2 5 4 2 4 6 3 4 4 10 14 16 9 11 4 1 5 4 2 4 1 3 7 7 7 7 7 10 3 3 6 5 6 6 4 6 1 4 1 4 4 3 7 5 1 6 8 9 8 6 6 6 10 14 14 13 13 14 13
2 5 3 1 2 3 3 2 2 3 5 6 6 3 2 4 3 3 6 7 5 4 2 3 4 2 0 2 2 4 4 8 7 2 0 2 2 2 7 13 16 10 11 12 4 5 0 1 2 5 6 8 9 6 3 3 5 10 7 9 5 1 3 4 5 4 6 3 4 5 7 5 2 3 4 7 10 12 12 12 14 13 12 11 12 13 14 13
1 3 4 8 2 4 4 3 1 2 4 1 3 3 4 4 6 3 1 1 3 6 2 4 1 1 1 0 3 4 3 4 9 4 5 4 4 4 7 14 12 13 15 8 5 2 1 4 5 4 5 9 7 4 6 5 6 3 6 5 2 5 6 6 5 6 4 9 2 2 4 7 9 5 7 10 9 10 11 12 13 12 14 15 13 12 13 12
3 2 1 2 5 6 9 2 4 8 5 4 3 2 5 6 6 3 3 5 2 6 3 1 0 4 4 7 2 0 2 2 2 3 3 3 3 6 3 5 8 8 7 2 2 3 3 4 5 1 4 4 7 6 6 4 6 7 8 7 5 6 5 6 5 4 6 4 7 4 7 9 7 10 12 15 18 18 18 19 17 15 13 12 12 14 14 14
1 2 4 5 5 4 4 13 14 9 8 2 3 2 4 5 8 4 1 2 1 1 2 1 3 7 8 6 2 2 1 2 3 2 0 3 3 4 3 3 3 5 5 1 1 2 0 6 3 1 4 3 1 2 5 8 3 5 8 8 7 8 9 7 4 5 6 2 5 8 11 11 6 9 10 9 5 7 7 8 10 13 16 15 15 15 15 16
5 5 5 4 5 8 9 7 7 7 4 4 2 3 3 4 6 7 0 1 1 1 1 2 6 4 5 2 3 1 2 2 2 3 2 0 9 0 1 3 6 4 7 3 3 1 4 6 2 0 2 1 3 4 4 8 8 5 0 5 7 7 5 2 1 2 5 5 0 6 7 7 4 2 2 4 9 10 11 13 14 14 14 15 15 15 15 16
4 3 4 8 9 5 6 6 8 8 4 3 4 8 5 4 6 5 6 3 4 1 4 3 3 6 1 1 2 5 6 7 7 10 9 3 4 2 2 2 4 6 6 3 3 1 2 5 1 2 1 2 2 3 3 6 6 6 3 3 5 6 4 1 2 5 4 4 4 7 3 5 3 1 6 5 7 13 15 14 13 12 13 14 15 16 16 15
3 4 6 5 4 5 6 7 6 6 6 4 3 11 5 7 8 5 4 4 4 5 3 2 4 3 6 6 8 5 5 5 9 11 8 8 8 8 4 4 3 3 4 4 0 1 2 1 2 2 1 1 4 0 5 8 6 3 2 4 5 1 0 1 2 1 2 10 7 7 8 5 6 8 11 8 9 10 11 14 15 14 15 17 18 18 18 17
Wind_Direction
348 347 347 345 344 340 343 341 340 338 337 334 331 333 333 331 328 328 327 327 325 326 327 331 333 333 333 331 330 330 332 325 316 310 300 263 238 229 241 242 250 242 260 285 276 280 288 295 221 258 113 120 234 167 232 191 176 116 201 181 223 177 190 191 186 185 197 200 239 261 247 193 280 311 279 46 24 75 51 39 358 37 46 96 106 118 127 132
348 345 346 343 342 341 341 338 341 337 334 333 331 327 330 326 325 325 326 324 323 323 327 327 328 333 334 332 331 332 332 317 303 294 263 264 270 239 235 240 247 237 235 288 212 216 208 287 213 146 139 177 226 200 164 242 166 187 185 173 221 171 214 172 189 196 129 221 221 228 116 183 254 296 294 60 284 114 67 30 66 71 76 87 102 117 122 129
347 344 342 342 340 340 340 338 337 334 334 332 329 328 328 327 325 326 325 323 323 324 325 325 327 330 333 333 331 333 329 309 302 285 274 332 331 256 243 239 234 223 196 220 212 186 181 198 89 105 186 166 231 198 190 236 167 226 136 209 215 195 208 211 169 210 205 189 224 243 277 290 270 337 298 16 184 354 140 129 82 106 112 108 112 114 118 124
341 342 338 337 338 339 336 335 332 332 333 331 330 330 327 326 326 328 323 322 321 322 324 322 327 330 332 333 334 327 324 287 279 240 252 11 18 11 348 236 231 213 192 236 274 288 272 51 24 118 124 192 261 181 185 218 172 218 207 223 189 185 188 224 214 222 223 206 237 205 296 341 299 303 74 207 56 318 257 201 146 141 132 129 131 133 133 132
339 338 338 334 335 336 334 334 333 332 331 331 329 327 327 325 327 328 324 322 322 321 321 323 325 327 334 333 329 339 315 340 262 297 329 14 11 6 5 323 218 192 188 215 329 262 251 350 66 43 151 195 210 203 238 222 208 141 225 185 173 170 211 230 216 227 225 216 225 279 294 252 296 67 47 126 199 240 283 195 126 140 143 142 143 142 139 138
336 336 335 332 333 331 333 332 333 331 330 329 327 326 324 325 325 325 324 322 322 321 321 321 323 325 333 336 320 319 324 237 341 299 312 356 357 359 359 2 194 167 154 195 221 337 154 356 124 170 198 149 199 202 237 196 190 239 245 208 187 184 192 220 207 223 224 241 235 240 228 280 354 288 202 114 171 254 289 161 148 144 143 139 133 134 130 130
335 333 333 332 327 329 327 328 328 328 328 326 325 326 325 325 323 324 322 319 320 322 318 320 321 322 337 335 314 282 240 271 335 251 338 344 349 359 359 353 99 131 148 171 217 223 178 200 161 213 136 190 267 221 256 196 232 251 242 132 202 192 208 220 204 211 219 219 231 212 295 212 220 294 112 38 310 288 110 131 136 135 134 131 132 136 138 140
335 332 329 329 328 325 326 322 323 324 323 322 323 323 324 324 324 322 323 315 319 317 321 315 319 323 349 347 335 338 274 249 251 305 315 324 349 356 360 2 52 71 192 204 192 204 160 191 182 142 234 174 219 183 210 270 230 226 240 219 267 194 229 240 244 236 230 239 221 247 246 248 231 208 95 7 341 99 104 116 120 126 127 128 132 135 135 135
334 332 328 325 325 326 325 323 321 318 319 317 316 316 318 321 320 320 317 317 313 315 315 317 313 322 25 349 311 304 245 253 305 279 314 2 350 350 1 360 357 120 272 243 218 209 164 229 189 191 211 232 247 288 248 178 256 227 234 225 244 248 223 224 242 246 240 232 158 202 247 262 264 141 64 108 95 112 116 113 126 128 129 133 136 139 141 145
334 332 328 325 326 326 324 323 321 319 317 317 316 314 313 312 312 311 312 313 313 311 313 313 312 321 32 350 303 274 267 269 317 19 3 346 342 340 348 344 348 336 318 267 229 210 198 195 184 219 232 269 240 230 208 198 228 184 191 216 237 245 251 241 214 245 243 238 168 198 235 251 212 174 236 207 140 132 118 124 135 137 135 131 130 132 141 149
336 332 328 327 324 325 324 324 322 317 317 316 315 312 309 308 307 306 307 307 309 308 309 307 308 325 67 345 245 249 302 324 352 338 334 329 325 329 319 321 326 316 297 293 245 208 208 216 190 190 230 224 42 262 215 223 271 295 187 214 225 242 248 259 252 250 245 272 181 177 222 238 198 166 210 156 156 145 132 140 140 135 131 132 132 140 151 156
337 335 330 329 327 324 325 323 322 318 315 317 317 314 309 308 305 307 304 304 302 305 304 305 301 299 230 235 230 232 340 303 306 303 309 310 302 292 294 288 284 270 284 278 284 255 222 213 201 208 209 150 243 358 278 234 245 265 260 247 243 235 243 234 235 240 167 255 164 175 219 252 114 212 218 149 149 147 138 139 141 133 127 126 132 140 156 167
336 336 334 331 328 326 322 322 322 320 320 318 316 313 312 306 304 304 306 304 302 300 302 301 301 263 289 278 251 263 256 271 282 290 293 283 283 282 271 276 264 256 245 252 261 255 226 215 219 231 247 308 225 162 257 340 239 210 197 162 283 250 247 233 217 227 202 237 152 136 232 242 239 247 136 148 149 141 138 142 148 141 133 131 136 148 153 160
335 335 334 332 330 326 323 323 323 323 321 319 316 313 312 308 303 301 301 301 302 301 297 297 289 232 231 252 293 261 269 256 270 285 272 279 299 290 290 257 259 263 249 243 254 259 246 221 204 229 287 210 240 318 348 14 339 174 239 142 207 197 238 196 186 193 216 197 181 164 234 273 261 272 156 149 161 150 149 151 154 144 135 136 143 150 157 164
334 333 332 331 329 328 327 326 326 325 324 321 318 315 309 305 298 294 292 294 294 295 289 302 305 313 264 272 295 260 254 257 259 255 261 268 265 296 278 261 224 235 239 232 247 224 219 200 175 198 242 210 267 322 309 9 3 219 151 220 206 198 322 272 203 180 205 230 166 158 232 228 262 193 160 153 163 159 144 149 146 141 135 140 144 149 158 162
333 333 331 331 330 330 330 329 329 327 325 323 319 315 311 302 298 291 286 282 286 284 297 12 238 200 276 289 266 309 283 226 242 241 256 213 221 232 257 271 309 295 293 278 218 235 225 166 181 189 242 196 186 181 320 15 261 272 204 203 214 164 241 291 224 191 203 200 184 187 214 66 284 180 152 157 160 161 145 149 143 141 142 141 145 148 153 153
333 330 331 331 332 331 329 329 328 328 325 324 322 316 311 304 299 294 289 285 270 250 145 200 217 171 265 216 322 300 280 239 258 275 225 191 200 214 245 278 276 290 277 271 259 249 229 163 198 153 199 212 159 130 181 250 270 243 188 187 197 169 171 222 302 229 198 188 217 218 160 213 205 158 155 165 160 153 158 151 148 144 145 147 143 151 164 173
330 330 329 329 330 328 327 327 327 326 325 322 321 317 313 305 297 299 304 265 135 146 166 149 287 298 262 244 272 254 11 313 312 305 296 268 194 204 200 206 231 247 294 308 269 168 178 184 170 205 140 200 171 179 185 209 202 181 160 157 256 109 182 210 183 241 162 199 195 195 185 206 190 146 163 172 168 163 165 158 152 150 148 149 149 156 170 176
329 332 330 328 327 326 325 327 328 327 324 326 326 321 302 292 325 103 294 146 82 20 24 211 160 175 239 215 223 299 275 295 302 281 278 308 171 185 184 211 303 174 219 171 260 170 175 172 145 157 196 194 204 196 194 340 121 140 144 154 160 164 213 206 213 254 162 181 202 176 190 168 157 157 159 165 170 168 158 136 134 145 150 151 155 163 171 176
329 330 327 328 326 322 326 325 328 326 329 332 351 338 347 24 359 344 356 7 219 199 219 180 191 234 282 277 280 271 314 308 293 234 265 289 136 151 187 157 171 233 202 200 196 198 131 187 198 203 206 202 193 188 187 251 80 146 142 136 180 177 257 248 228 212 171 145 197 188 168 159 169 169 174 171 160 162 155 153 152 157 158 160 165 167 169 170
327 329 327 326 327 323 324 328 328 331 332 7 356 355 1 327 332 310 317 255 248 247 242 244 217 220 235 267 274 320 330 308 220 276 268 244 246 140 193 146 173 187 210 193 167 251 146 205 224 215 195 190 179 168 182 261 186 90 121 143 188 174 210 229 213 216 189 159 218 167 156 168 173 178 167 153 155 174 168 159 160 164 168 167 166 161 163 158
327 326 327 326 328 325 324 330 329 325 328 108 40 289 259 253 222 288 321 298 248 234 238 240 241 251 252 250 259 268 272 277 304 290 288 168 175 171 201 169 173 202 129 186 295 250 197 215 214 173 176 148 155 163 176 214 244 149 161 174 114 248 232 282 252 244 201 173 210 163 153 180 173 166 160 169 175 176 176 172 169 165 169 169 167 160 155 158
326 323 324 326 326 325 325 326 324 319 353 69 166 224 243 245 268 192 231 274 282 241 242 240 245 248 259 262 257 178 214 232 254 282 261 299 166 192 159 177 189 165 143 184 200 193 211 229 154 167 154 151 151 166 167 197 239 210 153 143 192 232 151 238 269 42 175 160 160 170 136 118 74 92 136 150 175 174 176 172 170 176 171 173 175 168 161 164
326 324 324 324 327 328 325 324 318 338 118 179 204 217 243 295 310 21 311 285 303 298 219 234 225 246 251 236 195 184 197 225 196 264 257 179 168 184 164 186 167 177 200 196 207 212 217 153 157 157 188 160 169 170 170 182 215 219 165 150 195 220 187 155 234 170 124 36 112 104 83 71 142 145 146 141 110 130 166 161 171 188 187 156 143 161 173 174
324 326 325 324 326 327 330 327 23 333 323 266 221 247 249 253 255 165 281 291 256 268 192 274 188 234 238 197 155 154 198 258 227 245 270 36 317 151 227 160 158 206 205 192 205 241 263 271 156 163 176 197 160 178 188 176 208 231 212 177 195 169 224 283 319 122 95 140 243 134 44 196 176 177 152 143 136 153 164 176 189 183 177 163 177 180 176 185
321 324 326 325 326 328 335 346 288 307 337 290 241 252 188 237 168 133 136 304 295 272 309 300 106 269 137 210 146 196 44 271 209 228 220 223 194 201 212 190 181 202 195 171 196 219 211 246 190 169 178 192 191 188 193 165 191 178 251 180 195 197 200 303 297 87 165 192 240 201 144 229 332 192 187 153 150 162 173 190 194 191 186 179 184 186 185 183
324 322 325 322 324 335 338 302 292 333 323 296 266 279 358 263 142 122 48 251 300 213 233 200 75 9 152 199 158 144 96 262 246 187 209 210 224 174 240 229 178 204 151 160 185 224 168 227 206 192 174 186 202 202 206 177 146 213 216 170 181 179 208 210 165 117 221 214 311 210 135 140 198 225 186 198 176 181 186 199 199 198 192 188 188 190 188 184
321 320 322 319 321 323 270 296 305 286 239 232 158 133 74 177 92 42 111 2 314 310 288 303 211 143 229 179 162 177 208 5 39 314 203 167 169 288 184 232 162 171 163 177 206 129 175 203 203 200 187 187 205 196 129 158 160 215 196 158 170 187 196 187 235 275 196 41 307 256 107 120 213 190 165 181 204 179 195 202 207 200 191 187 187 192 192 185
322 321 319 318 315 305 292 240 257 255 225 234 125 59 73 55 105 94 97 164 228 337 99 115 273 28 299 129 193 221 275 252 29 261 320 154 170 135 142 234 183 174 242 189 195 282 179 202 200 191 194 203 178 146 154 166 142 214 149 144 156 156 163 192 204 180 286 120 247 228 184 153 279 226 165 166 249 191 199 209 208 194 188 187 187 191 190 183
323 321 316 313 311 286 251 204 227 240 234 255 329 48 50 58 337 6 33 257 29 294 24 291 18 309 324 337 226 224 252 263 230 42 335 182 213 114 238 142 102 77 272 100 165 224 218 178 173 185 205 192 125 174 139 156 185 166 94 132 71 67 104 98 94 113 55 245 240 206 188 158 220 213 183 164 200 200 202 208 192 187 192 190 190 187 186 180
323 319 315 308 284 285 277 262 248 240 238 232 118 356 56 38 169 99 216 242 340 272 339 345 338 360 4 14 337 294 239 299 318 133 327 354 47 151 233 57 26 29 47 71 187 255 253 269 190 209 152 144 143 165 164 161 196 135 165 144 112 315 19 29 1 45 165 250 238 155 179 164 220 211 210 220 201 200 188 195 192 190 188 185 185 185 184 176
322 317 311 305 265 212 216 233 259 248 189 149 119 76 104 54 346 147 222 25 52 284 88 303 312 2 328 331 241 263 199 247 214 124 182 281 100 159 224 183 168 119 202 180 214 238 275 246 245 340 167 159 165 165 192 165 192 176 114 130 145 228 127 265 67 236 216 217 258 165 142 62 231 194 177 205 224 211 205 200 192 188 184 181 181 181 177 171
322 316 312 298 270 195 223 232 256 25 115 134 97 84 144 204 261 228 268 351 251 162 305 199 278 325 300 328 280 263 241 236 106 121 231 288 298 286 237 203 181 135 182 197 154 176 271 286 155 233 243 182 156 177 166 184 202 175 163 160 161 151 167 198 220 225 322 289 229 136 177 206 216 249 184 194 211 208 201 204 191 181 179 178 178 175 167 168
320 318 308 264 225 211 214 210 230 188 133 100 95 158 189 240 243 175 212 215 231 332 278 273 317 300 255 231 260 10 335 296 92 207 163 240 166 237 290 259 207 290 74 129 157 182 185 230 247 171 220 174 180 191 182 176 176 193 116 153 173 171 167 195 190 201 213 210 285 292 105 232 134 241 189 200 204 206 200 88 127 163 159 166 162 165 162 164
320 312 282 279 245 226 209 197 204 193 159 108 97 158 223 243 250 226 273 266 277 246 260 165 332 294 299 264 242 242 203 312 204 157 178 182 264 175 210 219 215 171 205 130 226 115 222 237 251 203 212 174 190 178 142 119 152 198 151 88 127 212 127 165 201 138 210 226 39 156 187 190 164 260 274 207 191 155 104 129 132 152 160 159 160 169 173 172
320 312 293 255 235 251 180 183 163 163 183 175 149 209 224 215 249 167 239 183 99 141 314 290 243 247 235 269 236 289 209 179 266 177 219 181 199 213 204 221 173 195 167 167 186 169 161 243 263 178 226 189 184 157 196 156 181 194 127 193 205 130 100 70 47 161 118 62 240 177 332 322 290 351 357 157 157 144 130 130 149 158 168 165 169 170 171 173
328 328 347 297 267 174 155 154 155 157 185 195 215 243 225 263 240 233 312 296 304 21 294 288 215 201 230 226 244 181 223 181 294 155 295 178 291 214 221 252 173 181 210 134 319 205 146 237 280 150 203 239 195 168 188 190 144 126 194 212 74 100 116 156 220 350 84 151 248 115 185 212 95 212 315 148 162 154 156 162 163 166 164 170 170 173 176 176
321 308 280 266 251 157 147 145 137 152 190 219 225 241 123 267 180 207 134 330 278 195 261 224 262 207 260 255 231 177 171 166 218 130 208 189 251 201 177 191 201 191 199 169 77 272 27 357 269 192 186 202 206 160 183 236 168 175 196 180 149 189 225 304 103 241 103 211 252 339 212 232 187 180 155 167 173 171 165 160 158 168 172 176 172 170 170 166
284 304 329 283 324 162 137 134 136 163 188 232 256 275 228 244 208 199 196 202 226 272 253 239 244 204 256 277 269 163 157 178 176 173 116 221 148 210 173 165 213 208 171 156 191 279 358 196 294 226 171 179 142 166 191 199 229 47 110 162 179 122 202 97 200 173 123 245 82 282 73 211 217 195 178 180 181 177 167 165 181 175 178 176 175 169 166 166
322 4 291 335 20 93 121 127 143 168 170 245 242 232 299 293 270 242 199 192 258 212 238 286 208 274 180 248 313 99 194 185 129 227 115 224 197 283 172 163 177 192 161 173 192 116 312 151 250 262 232 130 185 189 195 190 187 170 160 187 175 195 207 130 49 139 197 173 187 165 287 281 253 206 184 180 178 176 174 182 179 178 178 179 176 170 167 163
290 195 281 86 80 105 97 68 97 192 230 268 259 268 294 270 296 225 217 212 221 240 254 270 328 225 36 1 330 305 177 116 84 58 180 286 180 311 224 167 177 209 143 158 202 184 226 329 222 299 124 192 213 207 192 189 164 168 163 195 181 164 152 159 245 17 97 145 244 126 228 271 265 175 203 189 181 176 185 173 174 178 177 176 172 168 166 162
328 5 285 160 109 93 92 138 214 165 245 256 256 191 266 266 270 281 265 203 208 237 203 246 243 266 259 222 251 308 189 119 292 17 252 202 260 195 275 188 164 166 141 198 201 173 148 160 76 298 197 199 209 209 171 151 142 170 176 224 174 149 112 114 170 232 52 215 125 174 137 258 245 216 198 202 188 183 173 168 172 174 175 173 169 165 164 160
324 255 237 139 139 114 100 229 188 196 228 243 308 274 255 266 257 274 279 206 240 209 228 205 216 192 226 211 214 229 106 353 200 216 229 248 243 222 218 173 171 186 160 238 127 234 190 266 301 288 276 295 270 63 145 150 136 108 228 91 122 181 180 167 168 186 173 168 112 223 200 254 293 323 164 82 40 50 151 170 165 168 170 165 161 161 161 154
299 290 316 6 118 118 96 270 287 227 257 263 254 263 253 259 268 289 259 246 195 237 226 231 236 214 263 206 262 352 297 32 279 228 276 233 261 230 208 183 173 197 174 209 175 184 175 268 145 298 51 132 90 77 81 145 146 177 182 217 183 164 164 162 106 96 164 217 169 127 200 276 276 338 112 104 105 130 145 152 161 160 165 163 162 162 161 155
275 239 228 297 126 154 215 202 256 294 295 297 298 296 315 257 225 225 230 265 232 232 235 243 244 136 208 255 254 239 264 183 250 258 214 213 237 236 200 180 184 188 205 204 139 153 173 212 131 192 152 157 179 176 179 175 187 185 204 184 197 141 136 128 216 128 177 259 134 141 226 252 282 5 108 109 113 102 110 131 155 169 164 161 161 163 160 157
348 337 302 241 145 192 226 184 220 261 295 316 315 281 249 287 301 207 215 258 216 267 270 291 302 247 269 179 212 227 193 215 207 256 183 291 292 275 178 185 181 191 200 210 211 73 218 138 163 167 164 185 204 201 242 131 140 172 194 174 204 147 118 117 115 111 195 206 177 224 180 210 304 123 125 133 139 149 148 152 163 169 171 163 161 163 165 162
357 67 323 334 299 175 232 182 232 177 289 316 283 337 297 265 277 341 196 263 176 194 224 207 253 52 186 26 233 258 206 242 213 253 265 251 243 267 199 173 184 189 204 211 222 53 33 319 264 184 205 214 186 189 191 160 150 183 137 165 184 147 153 129 141 202 174 108 263 270 206 151 219 202 185 162 156 158 165 165 164 164 168 169 164 156 154 153
34 267 253 24 321 315 331 11 307 310 294 161 252 294 281 300 320 314 217 222 263 204 211 0 61 212 216 194 210 186 273 253 165 201 286 242 315 315 80 168 167 189 180 138 104 134 239 277 273 149 277 237 208 237 151 138 145 167 155 149 161 172 137 159 213 198 135 171 202 227 181 184 225 210 200 184 168 170 176 177 175 166 152 146 152 155 158 155
311 329 281 0 323 286 253 274 294 297 311 206 250 289 287 299 312 314 285 333 299 275 157 249 246 239 235 242 197 223 266 35 319 296 286 302 357 321 54 117 25 120 140 124 256 163 91 249 251 244 286 333 353 260 183 136 123 132 151 163 158 155 191 176 185 186 167 183 192 170 181 205 211 220 206 205 191 154 126 109 122 148 162 162 160 161 162 162
21 342 327 329 249 280 282 288 297 312 331 325 338 269 253 292 304 324 143 160 305 308 149 201 288 313 271 241 200 162 209 181 196 265 263 26 326 339 207 175 147 98 126 210 180 239 154 267 247 358 32 314 302 327 121 134 129 146 75 143 155 160 130 145 116 105 101 52 14 143 164 235 263 200 102 64 91 111 129 150 160 160 157 161 164 166 167 168
318 280 288 314 314 288 299 325 335 325 324 348 351 334 315 269 300 328 288 230 204 203 171 235 294 323 223 279 208 235 224 213 206 219 227 189 251 245 36 282 123 132 144 199 177 253 142 263 62 58 8 305 320 16 80 96 103 118 103 91 117 116 121 213 152 208 135 159 135 106 119 262 246 171 88 94 127 146 156 157 156 163 165 163 167 170 170 170
298 279 291 296 285 295 317 320 313 334 8 342 327 316 326 313 305 317 313 259 237 241 256 321 329 14 311 342 306 267 261 210 223 236 233 224 223 252 238 255 357 123 147 225 185 164 158 119 350 20 24 263 275 32 121 104 90 127 214 209 184 182 46 144 278 86 191 149 115 124 215 211 165 156 138 157 155 162 156 165 166 164 167 172 173 174 175 175